Regional Weather Roundup
Issued by NWS

Home | Current Version | Previous Version | Text Only | Print | Product List | Glossary Off
Versions: 1 2 3 4 5 6 7 8 9 10 11 12 13 14 15 16 17 18 19 20 21 22 23 24 25 26 27 28 29 30 31 32 33 34 35 36 37 38 39 40 41 42 43 44 45 46 47 48 49 50

522
ASUS43 KDMX 071908
RWRIA

WEATHER ROUNDUP FOR IOWA
NATIONAL WEATHER SERVICE DES MOINES IA
100 PM CST SUN FEB 07 2016

NOTE: "FAIR" INDICATES FEW OR NO CLOUDS BELOW 12,000 FEET WITH NO
SIGNIFICANT WEATHER AND/OR OBSTRUCTIONS TO VISIBILITY.

* - THESE STATIONS ARE NOT NWS STATIONS...THUS NOT UNDER NWS
QUALITY CONTROL.  THEY ALSO DO NOT REPORT WEATHER SUCH
AS PRECIPITATION OR FOG.

IAZ001>003-012>014-020>022-031>034-043>046-072000-
   NORTHWEST IOWA

CITY           SKY/WX    TMP DP  RH WIND       PRES   REMARKS
CARROLL *      SUNNY     39  28  65 W20G28    29.87F WCI  30
CHEROKEE *     PTSUNNY   39  28  65 W15G21    29.85F WCI  31
DENISON *      SUNNY     41  27  56 W16G26    29.87F
LE MARS *      PTSUNNY   39  30  70 W31G41    29.88F WCI  27
ORANGE CITY *  PTSUNNY   36  30  80 NW33G39   29.84F WCI  22
SHELDON *      PTSUNNY   36  28  75 NW24G32   29.80F WCI  24
SIOUX CITY     CLOUDY    41  23  48 NW23G32   29.89F
SPENCER        SUNNY     37  27  67 W26       29.80F WCI  25
STORM LAKE *   PTSUNNY   37  30  75 W25G33    29.84F WCI  26
$$

IAZ055>058-069>071-079>083-090>094-072000-
   SOUTHWEST IOWA

CITY           SKY/WX    TMP DP  RH WIND       PRES   REMARKS
ATLANTIC *     SUNNY     41  27  56 W13G20    29.93F
AUDUBON *      SUNNY     41  28  60 W10G17    29.91F
CLARINDA *     PTSUNNY   46  30  53 W21G32    29.99F
COUNCIL BLFS * SUNNY     43  25  49 W18G25    29.96F
CRESTON *      PTSUNNY   41  30  65 W26G32    29.93F
HARLAN  *      SUNNY     39  28  65 W17       29.96F WCI  30
LAMONI         PTSUNNY   46  30  53 W24       29.94F
RED OAK *      MOSUNNY   43  30  61 W17G24    29.97F
SHENANDOAH *   MOSUNNY   45  32  61 NW18G24   30.00F
$$

IAZ047>049-059>061-072>074-084-072000-
   CENTRAL IOWA

CITY           SKY/WX    TMP DP  RH WIND       PRES   REMARKS
AMES           CLOUDY    39  28  64 W21       29.85F WCI  29
ANKENY *       SUNNY     41  30  65 W16G30    29.87F
BOONE *        SUNNY     39  28  65 W18G28    29.83F WCI  30
CHARITON *     MOSUNNY   45  28  53 W16G23    29.89F
DES MOINES     CLOUDY    44  26  49 W18G28    29.88F
GRINNELL*      MOSUNNY   39  30  70 W17G26    29.85F WCI  30
KNOXVILLE *    SUNNY     43  28  56 W16       29.87F
MARSHALLTOWN   MOSUNNY   37  29  72 W18       29.82F WCI  27
NEWTON *       SUNNY     41  30  65 W18G24    29.85F
PELLA *        MOSUNNY   43  28  56 W14G22    29.89F
$$

IAZ004>006-015-016-023>025-035-036-072000-
   NORTH CENTRAL IOWA

CITY           SKY/WX    TMP DP  RH WIND       PRES   REMARKS
ALGONA *       SUNNY     37  30  75 W20       29.78F WCI  27
CLARION *      SUNNY     37  28  70 W21       29.79F WCI  27
ESTHERVILLE    SUNNY     37  27  67 W28G37    29.75F WCI  25
FORT DODGE *   MOSUNNY   39  28  65 W16G22    29.83F WCI  30
MASON CITY     MOSUNNY   38  29  70 W20       29.76F WCI  28
FOREST CITY *  SUNNY     37  30  75 W17G23    29.75F WCI  28
WEBSTER CITY * SUNNY     37  30  75 W25       29.80F WCI  26
IOWA FALLS *     N/A     39  30  70 W21       29.80F WCI  29
$$

IAZ007>011-017>019-026>030-037>042-050>054-066-072000-
   NORTHEAST IOWA

CITY           SKY/WX    TMP DP  RH WIND       PRES   REMARKS
CEDAR RAPIDS   MOSUNNY   42  31  64 W20G30    29.80F
CHARLES CITY * SUNNY     37  30  75 W16G24    29.74F WCI  28
CLINTON *      SUNNY     43  32  65 W21       29.77S
DECORAH *      SUNNY     37  27  65 W14G23    29.69F WCI  29
DUBUQUE        SUNNY     37  27  67 W18G31    29.74F WCI  27
MONTICELLO *   SUNNY     39  28  65 W16       29.76F WCI  30
OELWEIN *      CLOUDY    37  28  70 W18G25    29.75F WCI  27
WATERLOO       MOSUNNY   40  26  57 W17G32    29.77F WCI  31
$$

IAZ064-065-067-068-078-072000-
   EAST CENTRAL IOWA

CITY           SKY/WX    TMP DP  RH WIND       PRES   REMARKS
DAVENPORT      SUNNY     44  31  60 W22       29.79F
IOWA CITY      SUNNY     46  31  55 W21G28    29.84F
MT. PLEASANT * SUNNY     48  30  49 W16G24    29.85F
MUSCATINE *    SUNNY     46  28  49 NW24      29.82F
QUAD CITIES    SUNNY     47  29  49 W15G25    29.79F
$$

IAZ062-063-075>077-085>089-095>099-072000-
   SOUTHEAST IOWA

CITY           SKY/WX    TMP DP  RH WIND       PRES   REMARKS
BURLINGTON     SUNNY     47  31  53 NW14G21   29.83F
FAIRFIELD *    SUNNY     45  28  53 W21       29.85F
FORT MADISON * SUNNY     46  32  57 NW15G25   29.85F
KEOKUK *       SUNNY     48  30  49 W14G21    29.85F
OSKALOOSA *      N/A     45  32  61 W21G30    29.86F
CENTERVILLE *    N/A    N/A N/A N/A MISG        N/A
OTTUMWA        SUNNY     46  26  45 W22G32    29.87F
WASHINGTON *   SUNNY     45  30  57 NW20G29   29.86F
$$

ABBREVIATIONS USED IN REMARKS
   TC - TEMPERATURES IN CELSIUS
  WCI - WIND CHILL INDEX
   HX - HEAT INDEX
  VSB - VISIBILITY
$$





USA.gov is the U.S. government's official web portal to all federal, state and local government web resources and services.